Location: Deurze
(52.9838°N, 6.6090°E)
Time: 19:01:41
(UTC+00:00)

COBE Rocket - Pass Details

Date: 11 March 2026
Orbit: 675 x 772 km, 97.1° (Epoch: 20 April)

Event Time Altitude Azimuth Distance (km) Brightness Sun altitude
Rises 18:41:26 0° 17° (NNE) 3,045 7.0 -11.5°
Reaches altitude 10° 18:43:47 10° 24° (NNE) 2,123 6.2 -11.8°
Maximum altitude 18:48:13 44° 97° (E) 939 4.0 -12.5°
Drops below altitude 10° 18:52:38 10° 169° (S) 2,117 6.1 -13.1°
Sets 18:54:58 0° 176° (S) 3,036 6.9 -13.5°
